KLM467 LPPT-LFML

Flight info

Callsign KLM467
Flight time 1h 53m
Altitude 36000
Route IXIDA DCT TOSDI DCT ZMR DCT NEA DCT DGO DCT LPA DCT GOSVI/N0452F280 DCT TOPTU DCT TOU DCT GAI/N0456F370 DCT DEGOL DCT FJR
Aircraft B739/M-SDE2E3FGHIRWXY/LB1

Departure

Time 2026-04-27 08:15
Airport Lisbon Humberto Delgado Airport (LPPT)

Arrival

Time 2026-04-27 10:08
Airport Marseille Provence Airport (LFML)
Time Latitude Longitude Altitude Speed Heading
2026-04-27 08:01 38.76981 -9.13082 336 ft 0 kts 79°
2026-04-27 08:10 38.76978 -9.13106 335 ft 4 kts 85°
2026-04-27 08:10 38.76978 -9.13140 333 ft 4 kts 106°
2026-04-27 08:11 38.76990 -9.13167 333 ft 4 kts 154°
2026-04-27 08:11 38.76997 -9.13171 335 ft 1 kts 168°
2026-04-27 08:12 38.76988 -9.13168 337 ft 9 kts 168°
2026-04-27 08:13 38.76879 -9.13138 337 ft 20 kts 167°
2026-04-27 08:13 38.76773 -9.13200 334 ft 20 kts 258°
2026-04-27 08:13 38.76741 -9.13370 350 ft 18 kts 242°
2026-04-27 08:13 38.76652 -9.13500 348 ft 22 kts 257°
2026-04-27 08:14 38.76618 -9.13720 352 ft 28 kts 259°
2026-04-27 08:14 38.76573 -9.13983 348 ft 32 kts 258°
2026-04-27 08:14 38.76597 -9.14253 336 ft 32 kts 292°
2026-04-27 08:14 38.76758 -9.14330 335 ft 29 kts 25°
2026-04-27 08:15 38.77059 -9.14167 353 ft 81 kts 22°
2026-04-27 08:15 38.77797 -9.13771 361 ft 147 kts 23°
2026-04-27 08:15 38.78899 -9.13155 515 ft 188 kts 25°
2026-04-27 08:15 38.80164 -9.12419 985 ft 213 kts 26°
2026-04-27 08:16 38.81472 -9.11590 2008 ft 200 kts 30°
2026-04-27 08:16 38.82641 -9.10789 3113 ft 186 kts 31°
2026-04-27 08:16 38.83800 -9.09954 3696 ft 203 kts 32°
2026-04-27 08:16 38.85115 -9.08955 3904 ft 233 kts 33°
2026-04-27 08:17 38.86588 -9.07820 4192 ft 258 kts 32°
2026-04-27 08:17 38.88155 -9.06613 4884 ft 266 kts 32°
2026-04-27 08:17 38.89731 -9.05376 5740 ft 266 kts 36°
2026-04-27 08:17 38.91185 -9.03871 6548 ft 269 kts 43°
2026-04-27 08:18 38.92552 -9.02256 7327 ft 271 kts 44°
2026-04-27 08:18 38.93936 -9.00586 8103 ft 274 kts 44°
2026-04-27 08:18 38.95314 -8.98932 8870 ft 277 kts 44°
2026-04-27 08:18 38.96759 -8.97211 9666 ft 280 kts 44°
2026-04-27 08:19 38.98201 -8.95505 10351 ft 286 kts 43°
2026-04-27 08:19 38.99726 -8.93707 10565 ft 308 kts 43°
2026-04-27 08:19 39.01357 -8.91792 10781 ft 328 kts 43°
2026-04-27 08:19 39.03106 -8.89741 10940 ft 350 kts 43°
2026-04-27 08:20 39.04957 -8.87571 11095 ft 368 kts 43°
2026-04-27 08:20 39.06881 -8.85318 11490 ft 378 kts 43°
2026-04-27 08:20 39.08832 -8.83033 12068 ft 382 kts 43°
2026-04-27 08:20 39.10804 -8.80722 12678 ft 384 kts 43°
2026-04-27 08:21 39.12793 -8.78388 13253 ft 388 kts 43°
2026-04-27 08:21 39.14797 -8.76035 13803 ft 392 kts 43°
2026-04-27 08:21 39.16821 -8.73653 14297 ft 396 kts 44°
2026-04-27 08:21 39.18761 -8.71115 14786 ft 399 kts 48°
2026-04-27 08:22 39.20612 -8.68415 15273 ft 402 kts 50°
2026-04-27 08:22 39.22409 -8.65703 15754 ft 406 kts 50°
2026-04-27 08:22 39.24247 -8.62918 16246 ft 409 kts 50°
2026-04-27 08:22 39.26104 -8.60125 16700 ft 412 kts 50°
2026-04-27 08:23 39.27994 -8.57308 17129 ft 417 kts 49°
2026-04-27 08:23 39.29906 -8.54474 17566 ft 421 kts 49°
2026-04-27 08:23 39.31844 -8.51615 18005 ft 424 kts 49°
2026-04-27 08:23 39.33797 -8.48739 18415 ft 428 kts 49°
2026-04-27 08:24 39.35764 -8.45841 18780 ft 431 kts 49°
2026-04-27 08:24 39.37753 -8.42911 19170 ft 434 kts 49°
2026-04-27 08:24 39.39747 -8.39969 19564 ft 437 kts 49°
2026-04-27 08:24 39.41754 -8.37004 19967 ft 439 kts 49°
2026-04-27 08:25 39.43771 -8.34021 20363 ft 442 kts 49°
2026-04-27 08:25 39.45807 -8.31008 20669 ft 447 kts 49°
2026-04-27 08:25 39.47860 -8.27966 21078 ft 449 kts 49°
2026-04-27 08:25 39.49919 -8.24912 21478 ft 451 kts 49°
2026-04-27 08:26 39.51989 -8.21839 21846 ft 454 kts 49°
2026-04-27 08:26 39.54077 -8.18736 22142 ft 458 kts 49°
2026-04-27 08:26 39.56179 -8.15609 22481 ft 461 kts 49°
2026-04-27 08:26 39.58292 -8.12461 22818 ft 464 kts 49°
2026-04-27 08:27 39.60418 -8.09292 23116 ft 468 kts 49°
2026-04-27 08:27 39.62547 -8.06115 23531 ft 468 kts 49°
2026-04-27 08:27 39.64692 -8.02912 23799 ft 471 kts 49°
2026-04-27 08:27 39.66891 -7.99750 24138 ft 472 kts 46°
2026-04-27 08:28 39.69209 -7.96728 24408 ft 475 kts 44°
2026-04-27 08:28 39.71602 -7.93757 24695 ft 477 kts 43°
2026-04-27 08:28 39.74023 -7.90796 24984 ft 479 kts 43°
2026-04-27 08:28 39.76451 -7.87817 25273 ft 481 kts 43°
2026-04-27 08:29 39.78873 -7.84820 25594 ft 482 kts 43°
2026-04-27 08:29 39.81293 -7.81797 25883 ft 484 kts 44°
2026-04-27 08:29 39.83719 -7.78743 26137 ft 486 kts 44°
2026-04-27 08:29 39.86151 -7.75666 26393 ft 488 kts 44°
2026-04-27 08:30 39.88587 -7.72576 26654 ft 490 kts 44°
2026-04-27 08:30 39.91032 -7.69469 26991 ft 491 kts 44°
2026-04-27 08:30 39.93467 -7.66371 27404 ft 489 kts 44°
2026-04-27 08:30 39.95897 -7.63277 27814 ft 488 kts 44°
2026-04-27 08:31 39.98326 -7.60184 28199 ft 488 kts 44°
2026-04-27 08:31 40.00720 -7.57130 28582 ft 487 kts 44°
2026-04-27 08:31 40.03148 -7.54032 28953 ft 488 kts 44°
2026-04-27 08:31 40.05574 -7.50933 29334 ft 488 kts 44°
2026-04-27 08:32 40.07994 -7.47840 29741 ft 487 kts 44°
2026-04-27 08:32 40.10410 -7.44747 30169 ft 486 kts 44°
2026-04-27 08:32 40.12822 -7.41657 30499 ft 486 kts 44°
2026-04-27 08:32 40.15234 -7.38562 30819 ft 485 kts 44°
2026-04-27 08:33 40.17639 -7.35475 31168 ft 484 kts 44°
2026-04-27 08:33 40.20038 -7.32391 31497 ft 483 kts 44°
2026-04-27 08:33 40.22439 -7.29301 31816 ft 483 kts 44°
2026-04-27 08:33 40.24837 -7.26213 32138 ft 482 kts 44°
2026-04-27 08:34 40.27221 -7.23139 32456 ft 482 kts 44°
2026-04-27 08:34 40.29612 -7.20052 32755 ft 481 kts 44°
2026-04-27 08:34 40.31991 -7.16979 33083 ft 480 kts 43°
2026-04-27 08:34 40.34367 -7.13905 33401 ft 480 kts 43°
2026-04-27 08:35 40.36740 -7.10832 33683 ft 479 kts 43°
2026-04-27 08:35 40.39108 -7.07762 33962 ft 479 kts 43°
2026-04-27 08:35 40.41474 -7.04693 34218 ft 478 kts 43°
2026-04-27 08:35 40.43845 -7.01612 34459 ft 478 kts 43°
2026-04-27 08:36 40.46175 -6.98583 34684 ft 478 kts 43°
2026-04-27 08:36 40.48533 -6.95513 34900 ft 477 kts 43°
2026-04-27 08:36 40.50892 -6.92439 35129 ft 477 kts 43°
2026-04-27 08:36 40.53247 -6.89368 35354 ft 476 kts 44°
2026-04-27 08:37 40.55596 -6.86301 35556 ft 476 kts 44°
2026-04-27 08:37 40.57947 -6.83228 35752 ft 476 kts 43°
2026-04-27 08:37 40.60290 -6.80162 35992 ft 474 kts 44°
2026-04-27 08:37 40.62625 -6.77103 36207 ft 474 kts 44°
2026-04-27 08:38 40.64962 -6.74039 36384 ft 474 kts 44°
2026-04-27 08:38 40.67296 -6.70976 36540 ft 474 kts 44°
2026-04-27 08:38 40.69631 -6.67908 36740 ft 474 kts 44°
2026-04-27 08:38 40.71962 -6.64842 36939 ft 473 kts 44°
2026-04-27 08:39 40.74296 -6.61768 37099 ft 473 kts 44°
2026-04-27 08:39 40.76626 -6.58696 37080 ft 475 kts 44°
2026-04-27 08:39 40.81290 -6.52538 37086 ft 473 kts 44°
2026-04-27 08:40 40.85931 -6.46398 37101 ft 471 kts 44°
2026-04-27 08:40 40.90545 -6.40280 37101 ft 469 kts 44°
2026-04-27 08:41 40.95110 -6.34214 37102 ft 468 kts 44°
2026-04-27 08:41 40.99708 -6.28121 37105 ft 467 kts 43°
2026-04-27 08:42 41.04500 -6.22307 37114 ft 468 kts 40°
2026-04-27 08:42 41.09393 -6.16569 37111 ft 469 kts 40°
2026-04-27 08:43 41.14276 -6.10784 37117 ft 471 kts 40°
2026-04-27 08:43 41.19149 -6.04950 37136 ft 473 kts 41°
2026-04-27 08:44 41.23999 -5.99117 37123 ft 474 kts 41°
2026-04-27 08:44 41.28889 -5.93225 37129 ft 475 kts 41°
2026-04-27 08:45 41.33783 -5.87319 37124 ft 475 kts 41°
2026-04-27 08:45 41.38676 -5.81401 37128 ft 474 kts 41°
2026-04-27 08:46 41.43564 -5.75476 37135 ft 474 kts 41°
2026-04-27 08:46 41.48430 -5.69565 37141 ft 473 kts 41°
2026-04-27 08:47 41.52943 -5.63209 37138 ft 473 kts 55°
2026-04-27 08:47 41.55556 -5.56826 37144 ft 472 kts 66°
2026-04-27 08:48 41.58585 -5.47476 37138 ft 472 kts 67°
2026-04-27 08:48 41.60769 -5.40731 37141 ft 472 kts 66°
2026-04-27 08:49 41.63390 -5.32746 37130 ft 472 kts 66°
2026-04-27 08:49 41.66041 -5.24718 37156 ft 473 kts 66°
2026-04-27 08:50 41.68697 -5.16661 37154 ft 474 kts 66°
2026-04-27 08:50 41.71352 -5.08580 37155 ft 474 kts 66°
2026-04-27 08:51 41.74003 -5.00479 37158 ft 475 kts 66°
2026-04-27 08:51 41.76650 -4.92369 37160 ft 475 kts 66°
2026-04-27 08:52 41.79295 -4.84239 37155 ft 475 kts 66°
2026-04-27 08:52 41.81932 -4.76113 37158 ft 476 kts 66°
2026-04-27 08:53 41.84564 -4.67973 37145 ft 476 kts 66°
2026-04-27 08:53 41.87180 -4.59860 37152 ft 476 kts 66°
2026-04-27 08:54 41.89802 -4.51706 37151 ft 475 kts 66°
2026-04-27 08:54 41.92413 -4.43558 37154 ft 475 kts 67°
2026-04-27 08:55 41.95023 -4.35390 37145 ft 475 kts 67°
2026-04-27 08:55 41.97618 -4.27245 37153 ft 475 kts 67°
2026-04-27 08:56 42.00198 -4.19123 37146 ft 474 kts 67°
2026-04-27 08:56 42.02786 -4.10951 37143 ft 474 kts 67°
2026-04-27 08:57 42.06956 -3.98902 37153 ft 474 kts 64°
2026-04-27 08:58 42.09826 -3.90914 37148 ft 474 kts 64°
2026-04-27 08:58 42.12660 -3.82904 37154 ft 474 kts 64°
2026-04-27 08:59 42.15473 -3.74868 37150 ft 474 kts 64°
2026-04-27 08:59 42.18279 -3.66814 37155 ft 474 kts 65°
2026-04-27 09:00 42.21081 -3.58751 37154 ft 475 kts 65°
2026-04-27 09:00 42.23884 -3.50668 37163 ft 475 kts 65°
2026-04-27 09:01 42.26660 -3.42639 37160 ft 476 kts 65°
2026-04-27 09:01 42.29452 -3.34538 37165 ft 476 kts 65°
2026-04-27 09:02 42.32242 -3.26420 37164 ft 475 kts 65°
2026-04-27 09:02 42.35021 -3.18311 37165 ft 475 kts 65°
2026-04-27 09:03 42.37787 -3.10213 37168 ft 474 kts 65°
2026-04-27 09:03 42.40548 -3.02108 37182 ft 473 kts 65°
2026-04-27 09:04 42.43296 -2.94021 37178 ft 473 kts 65°
2026-04-27 09:04 42.45275 -2.85645 37186 ft 471 kts 82°
2026-04-27 09:05 42.45596 -2.76816 37186 ft 469 kts 90°
2026-04-27 09:05 42.45645 -2.67982 37173 ft 470 kts 90°
2026-04-27 09:06 42.45744 -2.59124 37158 ft 471 kts 90°
2026-04-27 09:06 42.45870 -2.50263 37163 ft 471 kts 90°
2026-04-27 09:07 42.45992 -2.41384 37159 ft 472 kts 90°
2026-04-27 09:07 42.46173 -2.32499 37152 ft 473 kts 84°
2026-04-27 09:08 42.47466 -2.23770 37159 ft 473 kts 77°
2026-04-27 09:08 42.48989 -2.15089 37161 ft 473 kts 77°
2026-04-27 09:09 42.50467 -2.06409 37156 ft 473 kts 77°
2026-04-27 09:09 42.51906 -1.97704 37161 ft 473 kts 77°
2026-04-27 09:10 42.53327 -1.88999 37159 ft 472 kts 77°
2026-04-27 09:10 42.54741 -1.80304 37170 ft 471 kts 77°
2026-04-27 09:11 42.56139 -1.71669 37181 ft 470 kts 78°
2026-04-27 09:11 42.57535 -1.63012 37172 ft 469 kts 78°
2026-04-27 09:12 42.58922 -1.54362 37174 ft 468 kts 78°
2026-04-27 09:12 42.60302 -1.45716 37161 ft 468 kts 78°
2026-04-27 09:13 42.61672 -1.37089 37161 ft 467 kts 78°
2026-04-27 09:13 42.63035 -1.28472 37163 ft 466 kts 78°
2026-04-27 09:14 42.64393 -1.19852 37155 ft 466 kts 78°
2026-04-27 09:14 42.65732 -1.11310 37156 ft 465 kts 78°
2026-04-27 09:15 42.67073 -1.02712 37156 ft 465 kts 78°
2026-04-27 09:15 42.68408 -0.94101 37162 ft 465 kts 78°
2026-04-27 09:16 42.69736 -0.85497 37174 ft 466 kts 78°
2026-04-27 09:16 42.71060 -0.76869 37165 ft 467 kts 78°
2026-04-27 09:17 42.72378 -0.68234 37176 ft 467 kts 78°
2026-04-27 09:17 42.73692 -0.59578 37177 ft 467 kts 78°
2026-04-27 09:18 42.75001 -0.50916 37184 ft 467 kts 78°
2026-04-27 09:18 42.76303 -0.42246 37191 ft 467 kts 78°
2026-04-27 09:19 42.77600 -0.33564 37186 ft 467 kts 78°
2026-04-27 09:19 42.78892 -0.24951 37183 ft 467 kts 76°
2026-04-27 09:20 42.81355 -0.16822 37180 ft 465 kts 58°
2026-04-27 09:20 42.85281 -0.09846 37164 ft 464 kts 49°
2026-04-27 09:21 42.89418 -0.03119 37183 ft 462 kts 49°
2026-04-27 09:21 42.93528 0.03643 37184 ft 463 kts 50°
2026-04-27 09:22 42.97614 0.10456 37174 ft 464 kts 50°
2026-04-27 09:22 43.01688 0.17292 37174 ft 464 kts 50°
2026-04-27 09:23 43.05757 0.24137 37170 ft 464 kts 50°
2026-04-27 09:23 43.09831 0.31004 37180 ft 464 kts 50°
2026-04-27 09:24 43.13904 0.37884 37169 ft 465 kts 50°
2026-04-27 09:24 43.17943 0.44721 37175 ft 464 kts 50°
2026-04-27 09:25 43.21997 0.51600 37168 ft 464 kts 50°
2026-04-27 09:25 43.26044 0.58484 37160 ft 464 kts 50°
2026-04-27 09:26 43.30088 0.65379 37162 ft 463 kts 50°
2026-04-27 09:26 43.34127 0.72281 37162 ft 463 kts 50°
2026-04-27 09:27 43.38156 0.79182 37163 ft 462 kts 50°
2026-04-27 09:27 43.42172 0.86079 37155 ft 462 kts 50°
2026-04-27 09:28 43.46191 0.92995 37152 ft 462 kts 50°
2026-04-27 09:28 43.50196 0.99904 37159 ft 462 kts 50°
2026-04-27 09:29 43.54208 1.06842 37157 ft 462 kts 50°
2026-04-27 09:29 43.58186 1.13739 37151 ft 463 kts 50°
2026-04-27 09:30 43.62188 1.20693 37154 ft 462 kts 50°
2026-04-27 09:30 43.66189 1.27661 37158 ft 462 kts 50°
2026-04-27 09:31 43.70123 1.34641 37161 ft 463 kts 52°
2026-04-27 09:31 43.73935 1.41817 37157 ft 463 kts 53°
2026-04-27 09:32 43.77737 1.49020 37154 ft 463 kts 52°
2026-04-27 09:32 43.81545 1.56201 37166 ft 463 kts 52°
2026-04-27 09:33 43.85358 1.63384 37153 ft 463 kts 52°
2026-04-27 09:33 43.88530 1.69374 37158 ft 463 kts 52°
2026-04-27 09:34 43.92331 1.76572 37147 ft 463 kts 53°
2026-04-27 09:34 43.93925 1.80451 37137 ft 464 kts 70°
2026-04-27 09:34 43.94624 1.84804 37175 ft 464 kts 86°
2026-04-27 09:34 43.94447 1.89255 37166 ft 463 kts 102°
2026-04-27 09:35 43.93724 1.93605 37175 ft 463 kts 103°
2026-04-27 09:35 43.92188 2.02291 37163 ft 465 kts 103°
2026-04-27 09:36 43.90688 2.10984 37174 ft 466 kts 103°
2026-04-27 09:36 43.89218 2.19750 37178 ft 467 kts 103°
2026-04-27 09:37 43.87751 2.28542 37176 ft 469 kts 103°
2026-04-27 09:37 43.86274 2.37342 37184 ft 469 kts 103°
2026-04-27 09:38 43.84788 2.46143 37183 ft 469 kts 103°
2026-04-27 09:38 43.83292 2.54947 37180 ft 469 kts 103°
2026-04-27 09:39 43.81794 2.63726 37179 ft 468 kts 103°
2026-04-27 09:39 43.80291 2.72490 37172 ft 467 kts 103°
2026-04-27 09:40 43.78788 2.81221 37175 ft 466 kts 103°
2026-04-27 09:40 43.77280 2.89896 37163 ft 466 kts 103°
2026-04-27 09:41 43.75746 2.98585 37172 ft 465 kts 103°
2026-04-27 09:41 43.74205 3.07271 37155 ft 464 kts 103°
2026-04-27 09:41 43.73430 3.11626 36801 ft 471 kts 103°
2026-04-27 09:42 43.72644 3.16045 36178 ft 473 kts 103°
2026-04-27 09:42 43.71854 3.20467 35424 ft 472 kts 103°
2026-04-27 09:42 43.71065 3.24878 34682 ft 472 kts 102°
2026-04-27 09:42 43.70276 3.29275 33860 ft 473 kts 102°
2026-04-27 09:43 43.69484 3.33686 32973 ft 473 kts 103°
2026-04-27 09:43 43.68686 3.38114 32098 ft 474 kts 103°
2026-04-27 09:43 43.67897 3.42479 31231 ft 475 kts 103°
2026-04-27 09:43 43.67096 3.46905 30353 ft 476 kts 103°
2026-04-27 09:44 43.66291 3.51338 29307 ft 477 kts 103°
2026-04-27 09:44 43.65482 3.55786 28294 ft 478 kts 103°
2026-04-27 09:44 43.64670 3.60239 27267 ft 478 kts 103°
2026-04-27 09:44 43.63855 3.64698 26206 ft 479 kts 103°
2026-04-27 09:45 43.63036 3.69165 25252 ft 479 kts 103°
2026-04-27 09:45 43.62224 3.73583 24502 ft 473 kts 103°
2026-04-27 09:45 43.61418 3.77965 23733 ft 469 kts 103°
2026-04-27 09:45 43.60614 3.82318 22839 ft 465 kts 103°
2026-04-27 09:46 43.59821 3.86612 22049 ft 459 kts 104°
2026-04-27 09:46 43.59037 3.90843 21315 ft 452 kts 103°
2026-04-27 09:46 43.58262 3.95018 20570 ft 447 kts 104°
2026-04-27 09:46 43.57364 3.99084 19855 ft 442 kts 113°
2026-04-27 09:47 43.55995 4.02850 19240 ft 435 kts 118°
2026-04-27 09:47 43.54530 4.06475 18603 ft 431 kts 119°
2026-04-27 09:47 43.53070 4.10055 17878 ft 427 kts 119°
2026-04-27 09:47 43.51639 4.13611 17214 ft 423 kts 118°
2026-04-27 09:48 43.50239 4.17150 16578 ft 419 kts 118°
2026-04-27 09:48 43.48866 4.20665 15959 ft 414 kts 118°
2026-04-27 09:48 43.47511 4.24156 15340 ft 411 kts 118°
2026-04-27 09:48 43.46171 4.27615 14737 ft 408 kts 118°
2026-04-27 09:49 43.44845 4.31038 14142 ft 405 kts 118°
2026-04-27 09:49 43.43521 4.34450 13485 ft 402 kts 118°
2026-04-27 09:49 43.42208 4.37828 12852 ft 399 kts 118°
2026-04-27 09:49 43.40904 4.41181 12242 ft 396 kts 118°
2026-04-27 09:50 43.39625 4.44460 11657 ft 393 kts 118°
2026-04-27 09:50 43.38338 4.47757 11146 ft 389 kts 118°
2026-04-27 09:50 43.37071 4.50965 11052 ft 376 kts 118°
2026-04-27 09:50 43.35807 4.54141 10909 ft 378 kts 119°
2026-04-27 09:51 43.34570 4.57246 10780 ft 363 kts 119°
2026-04-27 09:51 43.33378 4.60237 10640 ft 348 kts 119°
2026-04-27 09:51 43.32242 4.63089 10539 ft 334 kts 119°
2026-04-27 09:51 43.31149 4.65832 10439 ft 321 kts 119°
2026-04-27 09:52 43.30108 4.68439 10328 ft 309 kts 119°
2026-04-27 09:52 43.29081 4.71008 10222 ft 298 kts 120°
2026-04-27 09:52 43.27843 4.73146 10141 ft 284 kts 143°
2026-04-27 09:52 43.26205 4.74559 10014 ft 275 kts 153°
2026-04-27 09:53 43.24502 4.75721 9860 ft 271 kts 155°
2026-04-27 09:53 43.22795 4.76827 9723 ft 272 kts 155°
2026-04-27 09:53 43.21069 4.77946 9587 ft 275 kts 155°
2026-04-27 09:53 43.19328 4.79082 9457 ft 279 kts 155°
2026-04-27 09:54 43.17573 4.80238 9316 ft 280 kts 155°
2026-04-27 09:54 43.15820 4.81399 9164 ft 280 kts 154°
2026-04-27 09:54 43.14071 4.82562 9026 ft 280 kts 154°
2026-04-27 09:54 43.12322 4.83728 8884 ft 280 kts 154°
2026-04-27 09:55 43.10573 4.84895 8745 ft 280 kts 154°
2026-04-27 09:55 43.08824 4.86064 8608 ft 280 kts 154°
2026-04-27 09:55 43.05317 4.88406 8330 ft 280 kts 154°
2026-04-27 09:56 43.03568 4.89573 8176 ft 280 kts 153°
2026-04-27 09:56 43.01812 4.90745 8051 ft 281 kts 153°
2026-04-27 09:56 43.00059 4.91915 7911 ft 281 kts 153°
2026-04-27 09:56 42.98302 4.93085 7764 ft 281 kts 153°
2026-04-27 09:57 42.96551 4.94251 7634 ft 280 kts 153°
2026-04-27 09:57 42.94794 4.95420 7487 ft 280 kts 153°
2026-04-27 09:57 42.93101 4.96713 7329 ft 279 kts 138°
2026-04-27 09:57 42.92015 4.98831 7206 ft 273 kts 107°
2026-04-27 09:58 42.91765 5.01352 7089 ft 268 kts 84°
2026-04-27 09:58 42.92163 5.03770 6970 ft 264 kts 70°
2026-04-27 09:58 42.92787 5.06121 6835 ft 264 kts 68°
2026-04-27 09:58 42.93430 5.08465 6701 ft 263 kts 68°
2026-04-27 09:59 42.94105 5.10782 6557 ft 262 kts 59°
2026-04-27 09:59 42.95322 5.12569 6428 ft 257 kts 33°
2026-04-27 09:59 42.96840 5.13827 6307 ft 255 kts 27°
2026-04-27 09:59 42.98410 5.14968 6172 ft 255 kts 26°
2026-04-27 10:00 42.99982 5.16089 6043 ft 255 kts 26°
2026-04-27 10:00 43.01552 5.17215 5916 ft 255 kts 26°
2026-04-27 10:00 43.03124 5.18352 5789 ft 255 kts 27°
2026-04-27 10:00 43.04700 5.19500 5548 ft 259 kts 27°
2026-04-27 10:01 43.06282 5.20659 5337 ft 257 kts 27°
2026-04-27 10:01 43.07843 5.21807 5208 ft 251 kts 27°
2026-04-27 10:01 43.09372 5.22935 5063 ft 248 kts 27°
2026-04-27 10:01 43.10883 5.24052 4950 ft 246 kts 27°
2026-04-27 10:02 43.12383 5.25162 4818 ft 246 kts 27°
2026-04-27 10:02 43.13897 5.26283 4695 ft 248 kts 27°
2026-04-27 10:02 43.15434 5.27423 4584 ft 251 kts 27°
2026-04-27 10:02 43.16965 5.28559 4445 ft 248 kts 27°
2026-04-27 10:03 43.18462 5.29670 4308 ft 240 kts 27°
2026-04-27 10:03 43.19883 5.30727 4185 ft 231 kts 27°
2026-04-27 10:03 43.21292 5.31774 4064 ft 223 kts 27°
2026-04-27 10:03 43.22613 5.32730 3947 ft 214 kts 21°
2026-04-27 10:04 43.24064 5.32996 3794 ft 210 kts 357°
2026-04-27 10:04 43.25555 5.32928 3559 ft 215 kts 359°
2026-04-27 10:04 43.27040 5.32894 3339 ft 217 kts 359°
2026-04-27 10:04 43.28539 5.32860 3103 ft 214 kts 359°
2026-04-27 10:05 43.30013 5.32826 2875 ft 209 kts 359°
2026-04-27 10:05 43.31451 5.32793 2610 ft 205 kts 359°
2026-04-27 10:05 43.32856 5.32760 2382 ft 200 kts 359°
2026-04-27 10:05 43.34228 5.32728 2169 ft 195 kts 359°
2026-04-27 10:06 43.35578 5.32614 2030 ft 191 kts 344°
2026-04-27 10:06 43.36595 5.31606 2008 ft 178 kts 308°
2026-04-27 10:06 43.37422 5.30379 1967 ft 171 kts 316°
2026-04-27 10:06 43.38253 5.29242 1929 ft 167 kts 314°
2026-04-27 10:07 43.39050 5.28107 1619 ft 162 kts 313°
2026-04-27 10:07 43.39824 5.26997 1322 ft 159 kts 313°
2026-04-27 10:07 43.40592 5.25900 1041 ft 159 kts 313°
2026-04-27 10:07 43.41353 5.24812 760 ft 157 kts 313°
2026-04-27 10:08 43.42103 5.23735 425 ft 157 kts 312°
2026-04-27 10:08 43.42857 5.22667 123 ft 154 kts 314°
2026-04-27 10:08 43.43572 5.21658 34 ft 123 kts 314°
2026-04-27 10:08 43.43837 5.21277 36 ft 35 kts 313°
2026-04-27 10:09 43.43972 5.21135 36 ft 24 kts 340°
2026-04-27 10:09 43.44123 5.21080 36 ft 21 kts
2026-04-27 10:09 43.44217 5.21215 36 ft 18 kts 60°
2026-04-27 10:09 43.44274 5.21352 36 ft 15 kts 62°
2026-04-27 10:10 43.44249 5.21490 36 ft 15 kts 134°
2026-04-27 10:10 43.44228 5.21517 36 ft 0 kts 137°
2026-04-27 10:10 43.44224 5.21522 36 ft 2 kts 140°
2026-04-27 10:10 43.44199 5.21524 36 ft 5 kts 192°
2026-04-27 10:11 43.44170 5.21549 36 ft 6 kts 136°
2026-04-27 10:11 43.44132 5.21603 36 ft 10 kts 134°
2026-04-27 10:11 43.44076 5.21681 36 ft 13 kts 134°
2026-04-27 10:11 43.44098 5.21788 36 ft 14 kts 42°
2026-04-27 10:12 43.44084 5.21905 36 ft 13 kts 133°
2026-04-27 10:12 43.44058 5.21991 34 ft 11 kts 73°
2026-04-27 10:12 43.44105 5.22043 36 ft 0 kts 27°